Location: Unspecified
(0.0000°N, 0.0000°E)
Time: 19:09:31
(UTC+01:00)

Centaur D-1AR AC-41 - Visible Passes

Search period start: 25 February 2017 00:00
Search period end: 07 March 2017 00:00
Orbit: 632 x 36209 km, 21.5° (Epoch: 24 February)

Date Brightness Start Highest point End Pass type
(mag) Time Alt. Az. Time Alt. Az. Time Alt. Az.
25 Feb 7.5 01:57:42 49° SSW 02:14:12 56° SSE 11:55:20 10° ENE visible
25 Feb 6.5 23:12:08 10° SW 23:33:46 26° SE 09:15:44 10° ENE visible
26 Feb 4.7 20:40:12 10° WSW 20:43:34 27° S 20:48:25 14° SE visible
27 Feb 11.1 02:53:48 10° E 04:56:06 19° ENE 06:07:22 10° ENE visible
28 Feb 5.8 05:39:58 10° WSW 07:25:09 52° WSW 15:43:02 10° ENE visible
01 Mar 7.3 03:10:13 38° SW 06:15:04 88° SSW 13:10:45 10° ENE visible
02 Mar 7.8 00:46:24 46° SE 00:46:24 46° SE 10:35:20 10° ENE visible
02 Mar 5.8 21:54:33 10° SW 22:22:37 - ESE 21:59:33 27° S visible
05 Mar 6.5 04:23:17 23° WSW 06:10:44 70° WSW 14:25:17 10° ENE visible
06 Mar 7.8 01:59:35 56° S 02:20:00 62° SE 11:52:02 10° ENE visible
